Torna al catalogo

NIMIQ 4

AttivoComunicazioniGEO
NORAD 33373·PAYLOAD·🇨🇦 Canada

Lanciato Sep 19, 2008 da Baikonur Cosmodrome

Loading…

TLE

AggiornatoSource: CelesTrak SupGP

Epoca: Sep 14, 2026, 04:59 UTC

1 33373C 08044A   26257.20833333 -.00000135  00000+0  00000+0 0  2577
2 33373   0.0129 115.0960 0002029  49.5584 181.5551  1.00271371    12

Traccia NIMIQ 4 in tempo reale con AllMySat

Download on the App Store